MTG-S1

Last updated on Sat Jul 19 2025 00:02:08 GMT+0000 (Coordinated Universal Time)

1 64723U 25143A 25199.17891877 -.00000024 00000+0 00000+0 0 9996 2 64723 1.0023 303.4837 0000323 57.5972 356.0752 1.00270574 72
UTC large
Height (km)
Speed (km/s)
/
Latitude / Longitude
Inclination (degrees)
Orbital Period (minutes)
Azimuth
Elevation
Range (km)
Doppler Factor

Next 0 passes for location: London (51.5072 / 0.1276)

Sorry there are no passes over London.